Time,TemperatureF,DewpointF,PressureIn,WindDirection,WindDirectionDegrees,WindSpeedMPH,WindSpeedGustMPH,Humidity,HourlyPrecipIn,Conditions,Clouds,dailyrainin,SoftwareType,DateUTC
2013-02-22 00:00:00,22.8,15.8,30.11,NW,315,2.3,4.6,74,0.00,CLR,,0.00,WeatherDisplay:10.37,2013-02-22 05:00:00,
2013-02-22 00:02:00,22.8,16.1,30.11,West,270,2.3,2.3,75,0.00,CLR,,0.00,WeatherDisplay:10.37,2013-02-22 05:02:00,
2013-02-22 00:07:00,22.8,16.1,30.11,West,270,2.3,4.6,75,0.00,CLR,,0.00,WeatherDisplay:10.37,2013-02-22 05:07:00,
2013-02-22 00:12:00,22.8,16.1,30.11,NW,315,2.6,4.6,75,0.00,CLR,,0.00,WeatherDisplay:10.37,2013-02-22 05:12:00,
2013-02-22 00:17:00,22.8,16.1,30.11,WNW,292,2.2,4.6,75,0.00,CLR,,0.00,WeatherDisplay:10.37,2013-02-22 05:17:00,
2013-02-22 00:22:00,23.2,16.4,30.18,NNW,338,2.6,3.5,75,0.00,CLR,,0.00,WeatherDisplay:10.37,2013-02-22 05:22:00,
2013-02-22 00:27:00,23.0,16.3,30.18,South,180,2.8,4.6,75,0.00,CLR,,0.00,WeatherDisplay:10.37,2013-02-22 05:27:00,
2013-02-22 00:32:00,23.2,16.4,30.18,WNW,292,3.0,3.5,75,0.00,CLR,,0.00,WeatherDisplay:10.37,2013-02-22 05:32:00,
2013-02-22 00:33:00,23.2,16.4,30.18,WNW,292,3.0,4.6,75,0.00,CLR,,0.00,WeatherDisplay:10.37,2013-02-22 05:33:00,
2013-02-22 00:38:00,23.2,16.4,30.19,WSW,248,3.0,3.0,75,0.00,CLR,,0.00,WeatherDisplay:10.37,2013-02-22 05:38:00,
2013-02-22 00:43:00,23.2,16.4,30.19,NW,315,2.8,9.2,75,0.00,CLR,,0.00,WeatherDisplay:10.37,2013-02-22 05:43:00,
2013-02-22 00:48:00,23.2,16.4,30.19,WNW,292,2.8,3.5,75,0.00,CLR,,0.00,WeatherDisplay:10.37,2013-02-22 05:48:00,
2013-02-22 00:53:00,23.2,16.4,30.19,SSW,202,2.5,3.5,75,0.00,CLR,,0.00,WeatherDisplay:10.37,2013-02-22 05:53:00,
2013-02-22 00:58:00,23.2,16.4,30.19,SSW,202,2.1,4.6,75,0.00,CLR,,0.00,WeatherDisplay:10.37,2013-02-22 05:58:00,
2013-02-22 01:03:00,23.2,16.7,30.19,South,180,2.0,3.5,76,0.00,CLR,,0.00,WeatherDisplay:10.37,2013-02-22 06:03:00,
2013-02-22 01:08:00,23.2,16.7,30.19,West,270,2.0,4.6,76,0.00,CLR,,0.00,WeatherDisplay:10.37,2013-02-22 06:08:00,
2013-02-22 01:13:00,23.4,16.6,30.19,NW,315,2.6,4.6,75,0.00,CLR,,0.00,WeatherDisplay:10.37,2013-02-22 06:13:00,
2013-02-22 01:18:00,23.2,16.4,30.18,NNW,338,2.8,2.8,75,0.00,CLR,,0.00,WeatherDisplay:10.37,2013-02-22 06:18:00,
2013-02-22 01:23:00,23.2,16.7,30.18,NW,315,2.5,5.8,76,0.00,CLR,,0.00,WeatherDisplay:10.37,2013-02-22 06:23:00,
2013-02-22 01:28:00,23.4,16.6,30.18,NNW,338,2.3,3.5,75,0.00,CLR,,0.00,WeatherDisplay:10.37,2013-02-22 06:28:00,
2013-02-22 01:33:00,23.4,16.6,30.18,WNW,292,2.5,4.6,75,0.00,CLR,,0.00,WeatherDisplay:10.37,2013-02-22 06:33:00,
2013-02-22 01:38:00,23.4,16.6,30.19,WNW,292,2.2,2.3,75,0.00,CLR,,0.00,WeatherDisplay:10.37,2013-02-22 06:38:00,
2013-02-22 01:43:00,23.4,16.6,30.19,WNW,292,2.3,6.9,75,0.00,CLR,,0.00,WeatherDisplay:10.37,2013-02-22 06:43:00,
2013-02-22 01:48:00,23.4,16.9,30.19,SSW,202,2.5,5.8,76,0.00,CLR,,0.00,WeatherDisplay:10.37,2013-02-22 06:48:00,
2013-02-22 01:53:00,23.4,16.6,30.19,WSW,248,2.5,2.5,75,0.00,CLR,,0.00,WeatherDisplay:10.37,2013-02-22 06:53:00,
2013-02-22 01:58:00,23.2,16.7,30.19,SSE,158,2.0,2.3,76,0.00,CLR,,0.00,WeatherDisplay:10.37,2013-02-22 06:58:00,
2013-02-22 02:03:00,23.2,16.7,30.19,WSW,248,1.8,2.3,76,0.00,CLR,,0.00,WeatherDisplay:10.37,2013-02-22 07:03:00,
2013-02-22 02:07:00,23.2,16.7,30.19,WSW,248,2.0,5.8,76,0.00,CLR,,0.00,WeatherDisplay:10.37,2013-02-22 07:07:00,
2013-02-22 02:12:00,23.2,16.7,30.19,NNE,22,1.6,0.0,76,0.00,CLR,,0.00,WeatherDisplay:10.37,2013-02-22 07:12:00,
2013-02-22 02:17:00,23.2,16.7,30.19,ESE,112,1.8,3.5,76,0.00,CLR,,0.00,WeatherDisplay:10.37,2013-02-22 07:17:00,
2013-02-22 02:22:00,23.2,16.7,30.19,WNW,292,1.8,1.8,76,0.00,CLR,,0.00,WeatherDisplay:10.37,2013-02-22 07:22:00,
2013-02-22 02:27:00,23.2,16.7,30.19,West,270,1.7,5.8,76,0.00,CLR,,0.00,WeatherDisplay:10.37,2013-02-22 07:27:00,
2013-02-22 02:32:00,23.2,16.7,30.19,WNW,292,1.6,2.3,76,0.00,CLR,,0.00,WeatherDisplay:10.37,2013-02-22 07:32:00,
2013-02-22 02:37:00,23.0,16.6,30.19,SW,225,1.3,0.0,76,0.00,CLR,,0.00,WeatherDisplay:10.37,2013-02-22 07:37:00,
2013-02-22 02:42:00,23.2,17.0,30.21,SW,225,0.9,2.3,77,0.00,CLR,,0.00,WeatherDisplay:10.37,2013-02-22 07:42:00,
2013-02-22 02:47:00,23.0,16.9,30.21,NW,315,1.1,1.1,77,0.00,CLR,,0.00,WeatherDisplay:10.37,2013-02-22 07:47:00,
2013-02-22 02:52:00,23.2,17.0,30.21,SE,135,1.1,1.1,77,0.00,CLR,,0.00,WeatherDisplay:10.37,2013-02-22 07:52:00,
2013-02-22 02:57:00,23.2,17.0,30.21,NNE,22,1.0,1.1,77,0.00,CLR,,0.00,WeatherDisplay:10.37,2013-02-22 07:57:00,
2013-02-22 03:02:00,23.2,17.0,30.19,SSW,202,0.9,0.0,77,0.00,CLR,,0.00,WeatherDisplay:10.37,2013-02-22 08:02:00,
2013-02-22 03:07:00,23.2,17.0,30.19,SSW,202,0.9,1.1,77,0.00,CLR,,0.00,WeatherDisplay:10.37,2013-02-22 08:07:00,
2013-02-22 03:12:00,22.8,16.7,30.19,North,0,0.7,1.1,77,0.00,CLR,,0.00,WeatherDisplay:10.37,2013-02-22 08:12:00,
2013-02-22 03:17:00,22.6,16.5,30.19,NW,315,0.8,2.3,77,0.00,CLR,,0.00,WeatherDisplay:10.37,2013-02-22 08:17:00,
2013-02-22 03:22:00,22.8,16.7,30.19,WSW,248,1.0,2.3,77,0.00,CLR,,0.00,WeatherDisplay:10.37,2013-02-22 08:22:00,
2013-02-22 03:27:00,22.8,16.7,30.19,East,90,1.1,3.5,77,0.00,CLR,,0.00,WeatherDisplay:10.37,2013-02-22 08:27:00,
2013-02-22 03:32:00,22.8,16.7,30.19,WNW,292,1.1,3.5,77,0.00,CLR,,0.00,WeatherDisplay:10.37,2013-02-22 08:32:00,
2013-02-22 03:37:00,22.8,16.7,30.19,SSE,158,1.0,2.3,77,0.00,CLR,,0.00,WeatherDisplay:10.37,2013-02-22 08:37:00,
2013-02-22 03:42:00,22.6,16.5,30.20,SSW,202,1.1,1.1,77,0.00,CLR,,0.00,WeatherDisplay:10.37,2013-02-22 08:42:00,
2013-02-22 03:47:00,22.6,16.5,30.20,SW,225,1.3,2.3,77,0.00,CLR,,0.00,WeatherDisplay:10.37,2013-02-22 08:47:00,
2013-02-22 03:52:00,22.6,16.5,30.20,ENE,68,0.9,2.3,77,0.00,CLR,,0.00,WeatherDisplay:10.37,2013-02-22 08:52:00,
2013-02-22 03:57:00,22.6,16.5,30.20,West,270,0.9,2.3,77,0.00,CLR,,0.00,WeatherDisplay:10.37,2013-02-22 08:57:00,
2013-02-22 04:02:00,22.5,16.3,30.20,SW,225,0.7,1.1,77,0.00,CLR,,0.00,WeatherDisplay:10.37,2013-02-22 09:02:00,
2013-02-22 04:07:00,22.5,16.3,30.20,NE,45,0.5,1.1,77,0.00,CLR,,0.00,WeatherDisplay:10.37,2013-02-22 09:07:00,
2013-02-22 04:12:00,22.5,16.6,30.20,SW,225,0.2,2.3,78,0.00,CLR,,0.00,WeatherDisplay:10.37,2013-02-22 09:12:00,
2013-02-22 04:17:00,22.1,16.3,30.20,SW,225,0.1,2.3,78,0.00,CLR,,0.00,WeatherDisplay:10.37,2013-02-22 09:17:00,
2013-02-22 04:22:00,22.1,16.3,30.20,West,270,0.1,0.0,78,0.00,CLR,,0.00,WeatherDisplay:10.37,2013-02-22 09:22:00,
2013-02-22 04:27:00,22.1,16.3,30.20,SW,225,0.3,1.1,78,0.00,CLR,,0.00,WeatherDisplay:10.37,2013-02-22 09:27:00,
2013-02-22 04:32:00,21.7,15.9,30.20,SW,225,0.3,0.0,78,0.00,CLR,,0.00,WeatherDisplay:10.37,2013-02-22 09:32:00,
2013-02-22 04:37:00,21.7,15.9,30.20,SSW,202,0.2,0.0,78,0.00,CLR,,0.00,WeatherDisplay:10.37,2013-02-22 09:37:00,
2013-02-22 04:42:00,21.4,15.6,30.22,North,0,0.0,0.0,78,0.00,CLR,,0.00,WeatherDisplay:10.37,2013-02-22 09:42:00,
2013-02-22 04:47:00,21.0,15.5,30.22,NNW,338,0.1,0.0,79,0.00,CLR,,0.00,WeatherDisplay:10.37,2013-02-22 09:47:00,
2013-02-22 04:52:00,21.0,15.5,30.22,West,270,0.1,0.0,79,0.00,CLR,,0.00,WeatherDisplay:10.37,2013-02-22 09:52:00,
2013-02-22 04:57:00,20.7,15.2,30.22,SW,225,0.0,0.0,79,0.00,CLR,,0.00,WeatherDisplay:10.37,2013-02-22 09:57:00,
2013-02-22 05:02:00,20.3,14.8,30.22,WSW,248,0.0,0.0,79,0.00,CLR,,0.00,WeatherDisplay:10.37,2013-02-22 10:02:00,
2013-02-22 05:07:00,20.3,15.1,30.22,WSW,248,0.1,0.0,80,0.00,CLR,,0.00,WeatherDisplay:10.37,2013-02-22 10:07:00,
2013-02-22 05:12:00,20.3,15.1,30.22,SW,225,0.1,0.0,80,0.00,CLR,,0.00,WeatherDisplay:10.37,2013-02-22 10:12:00,
2013-02-22 05:17:00,19.9,14.8,30.22,SW,225,0.0,0.0,80,0.00,CLR,,0.00,WeatherDisplay:10.37,2013-02-22 10:17:00,
2013-02-22 05:22:00,19.6,14.4,30.25,NE,45,0.0,0.0,80,0.00,CLR,,0.00,WeatherDisplay:10.37,2013-02-22 10:22:00,
2013-02-22 05:27:00,19.6,14.4,30.25,NE,45,0.0,0.0,80,0.00,CLR,,0.00,WeatherDisplay:10.37,2013-02-22 10:27:00,
2013-02-22 05:32:00,19.6,14.7,30.25,WNW,292,0.1,0.0,81,0.00,CLR,,0.00,WeatherDisplay:10.37,2013-02-22 10:32:00,
2013-02-22 05:37:00,19.6,14.7,30.25,SW,225,0.1,0.0,81,0.00,CLR,,0.00,WeatherDisplay:10.37,2013-02-22 10:37:00,
2013-02-22 05:42:00,19.0,14.2,30.25,NW,315,0.1,0.0,81,0.00,CLR,,0.00,WeatherDisplay:10.37,2013-02-22 10:42:00,
2013-02-22 05:47:00,19.2,14.3,30.25,WNW,292,0.0,1.1,81,0.00,CLR,,0.00,WeatherDisplay:10.37,2013-02-22 10:47:00,
2013-02-22 05:52:00,18.9,14.0,30.25,SW,225,0.0,0.0,81,0.00,CLR,,0.00,WeatherDisplay:10.37,2013-02-22 10:52:00,
2013-02-22 05:57:00,18.9,14.0,30.25,SW,225,0.1,1.1,81,0.00,CLR,,0.00,WeatherDisplay:10.37,2013-02-22 10:57:00,
2013-02-22 06:02:00,18.9,14.0,30.26,SW,225,0.1,0.0,81,0.00,CLR,,0.00,WeatherDisplay:10.37,2013-02-22 11:02:00,
2013-02-22 06:07:00,18.9,14.0,30.26,SW,225,0.1,0.0,81,0.00,CLR,,0.00,WeatherDisplay:10.37,2013-02-22 11:07:00,
2013-02-22 06:12:00,18.9,14.3,30.26,WSW,248,0.0,0.0,82,0.00,CLR,,0.00,WeatherDisplay:10.37,2013-02-22 11:12:00,
2013-02-22 06:17:00,18.9,14.3,30.26,SW,225,0.2,0.0,82,0.00,CLR,,0.00,WeatherDisplay:10.37,2013-02-22 11:17:00,
2013-02-22 06:22:00,18.9,14.3,30.28,West,270,0.5,1.1,82,0.00,CLR,,0.00,WeatherDisplay:10.37,2013-02-22 11:22:00,
2013-02-22 06:27:00,18.9,14.3,30.28,SW,225,0.5,1.1,82,0.00,CLR,,0.00,WeatherDisplay:10.37,2013-02-22 11:27:00,
2013-02-22 06:32:00,19.2,14.6,30.28,SSW,202,0.6,1.1,82,0.00,CLR,,0.00,WeatherDisplay:10.37,2013-02-22 11:32:00,
2013-02-22 06:37:00,19.2,14.6,30.28,SSE,158,0.8,1.1,82,0.00,CLR,,0.00,WeatherDisplay:10.37,2013-02-22 11:37:00,
2013-02-22 06:42:00,19.6,15.0,30.29,NW,315,0.8,3.5,82,0.00,CLR,,0.00,WeatherDisplay:10.37,2013-02-22 11:42:00,
2013-02-22 06:47:00,19.6,15.0,30.29,WNW,292,0.8,2.3,82,0.00,CLR,,0.00,WeatherDisplay:10.37,2013-02-22 11:47:00,
2013-02-22 06:52:00,19.6,15.0,30.29,SW,225,0.3,0.0,82,0.00,CLR,,0.00,WeatherDisplay:10.37,2013-02-22 11:52:00,
2013-02-22 06:57:00,19.6,15.0,30.29,SW,225,0.3,0.0,82,0.00,CLR,,0.00,WeatherDisplay:10.37,2013-02-22 11:57:00,
2013-02-22 07:02:00,19.8,15.2,30.31,West,270,0.3,0.0,82,0.00,CLR,,0.00,WeatherDisplay:10.37,2013-02-22 12:02:00,
2013-02-22 07:07:00,20.3,15.7,30.31,SW,225,0.5,0.0,82,0.00,CLR,,0.00,WeatherDisplay:10.37,2013-02-22 12:07:00,
2013-02-22 07:12:00,20.3,15.7,30.31,South,180,0.3,0.0,82,0.00,CLR,,0.00,WeatherDisplay:10.37,2013-02-22 12:12:00,
2013-02-22 07:17:00,20.1,15.2,30.31,South,180,0.1,0.0,81,0.00,CLR,,0.00,WeatherDisplay:10.37,2013-02-22 12:17:00,
2013-02-22 07:22:00,20.3,15.7,30.31,SW,225,0.0,0.0,82,0.00,CLR,,0.00,WeatherDisplay:10.37,2013-02-22 12:22:00,
2013-02-22 07:27:00,20.5,15.9,30.31,West,270,0.0,0.0,82,0.00,CLR,,0.00,WeatherDisplay:10.37,2013-02-22 12:27:00,
2013-02-22 07:32:00,21.0,16.4,30.31,South,180,0.1,0.0,82,0.00,CLR,,0.00,WeatherDisplay:10.37,2013-02-22 12:32:00,
2013-02-22 07:37:00,21.4,16.7,30.31,ENE,68,0.1,0.0,82,0.00,CLR,,0.00,WeatherDisplay:10.37,2013-02-22 12:37:00,
2013-02-22 07:42:00,21.7,16.8,30.31,WNW,292,0.0,0.0,81,0.00,CLR,,0.00,WeatherDisplay:10.37,2013-02-22 12:42:00,
2013-02-22 07:47:00,22.5,17.5,30.31,SW,225,0.3,2.3,81,0.00,CLR,,0.00,WeatherDisplay:10.37,2013-02-22 12:47:00,
2013-02-22 07:52:00,23.2,18.2,30.31,NW,315,0.5,0.0,81,0.00,CLR,,0.00,WeatherDisplay:10.37,2013-02-22 12:52:00,
2013-02-22 07:57:00,23.2,17.9,30.31,NNE,22,0.2,1.1,80,0.00,CLR,,0.00,WeatherDisplay:10.37,2013-02-22 12:57:00,
2013-02-22 08:02:00,23.5,18.3,30.32,ENE,68,0.1,0.0,80,0.00,CLR,,0.00,WeatherDisplay:10.37,2013-02-22 13:02:00,
2013-02-22 08:07:00,23.9,18.6,30.32,NNW,338,0.1,0.0,80,0.00,CLR,,0.00,WeatherDisplay:10.37,2013-02-22 13:07:00,
2013-02-22 08:12:00,24.3,19.0,30.32,South,180,0.1,0.0,80,0.00,CLR,,0.00,WeatherDisplay:10.37,2013-02-22 13:12:00,
2013-02-22 08:17:00,24.8,19.2,30.32,ENE,68,0.3,2.3,79,0.00,CLR,,0.00,WeatherDisplay:10.37,2013-02-22 13:17:00,
2013-02-22 08:22:00,25.3,19.7,30.34,NE,45,0.6,0.0,79,0.00,CLR,,0.00,WeatherDisplay:10.37,2013-02-22 13:22:00,
2013-02-22 08:27:00,25.7,20.1,30.34,NE,45,0.5,2.3,79,0.00,CLR,,0.00,WeatherDisplay:10.37,2013-02-22 13:27:00,
2013-02-22 08:32:00,26.4,20.5,30.34,ENE,68,1.4,1.4,78,0.00,CLR,,0.00,WeatherDisplay:10.37,2013-02-22 13:32:00,
2013-02-22 08:37:00,26.8,20.5,30.34,NE,45,1.3,2.3,77,0.00,CLR,,0.00,WeatherDisplay:10.37,2013-02-22 13:37:00,
2013-02-22 08:42:00,27.1,20.6,30.34,ENE,68,0.9,2.3,76,0.00,CLR,,0.00,WeatherDisplay:10.37,2013-02-22 13:42:00,
2013-02-22 08:47:00,27.5,20.9,30.34,NE,45,1.0,3.5,76,0.00,CLR,,0.00,WeatherDisplay:10.37,2013-02-22 13:47:00,
2013-02-22 08:52:00,28.0,20.8,30.34,NE,45,2.0,2.3,74,0.00,CLR,,0.00,WeatherDisplay:10.37,2013-02-22 13:52:00,
2013-02-22 08:57:00,28.4,20.8,30.34,NNE,22,2.3,4.6,73,0.00,CLR,,0.00,WeatherDisplay:10.37,2013-02-22 13:57:00,
2013-02-22 09:02:00,29.3,21.4,30.37,SW,225,2.5,4.6,72,0.00,CLR,,0.00,WeatherDisplay:10.37,2013-02-22 14:02:00,
2013-02-22 09:07:00,29.7,21.1,30.37,NE,45,3.7,8.1,70,0.00,CLR,,0.00,WeatherDisplay:10.37,2013-02-22 14:07:00,
2013-02-22 09:12:00,30.0,21.1,30.37,NE,45,3.9,4.6,69,0.00,CLR,,0.00,WeatherDisplay:10.37,2013-02-22 14:12:00,
2013-02-22 09:17:00,30.4,21.4,30.37,NW,315,3.6,4.6,69,0.00,CLR,,0.00,WeatherDisplay:10.37,2013-02-22 14:17:00,
2013-02-22 09:22:00,30.7,21.4,30.38,East,90,2.9,3.5,68,0.00,CLR,,0.00,WeatherDisplay:10.37,2013-02-22 14:22:00,
2013-02-22 09:27:00,30.7,21.1,30.38,NNE,22,3.1,5.8,67,0.00,CLR,,0.00,WeatherDisplay:10.37,2013-02-22 14:27:00,
2013-02-22 09:32:00,31.5,21.4,30.38,NE,45,3.8,4.6,66,0.00,CLR,,0.00,WeatherDisplay:10.37,2013-02-22 14:32:00,
2013-02-22 09:37:00,31.5,21.4,30.38,ESE,112,3.1,5.8,66,0.00,CLR,,0.00,WeatherDisplay:10.37,2013-02-22 14:37:00,
2013-02-22 09:42:00,31.6,21.6,30.38,NE,45,2.5,2.5,66,0.00,CLR,,0.00,WeatherDisplay:10.37,2013-02-22 14:42:00,
2013-02-22 09:47:00,31.8,21.4,30.38,ENE,68,2.4,2.4,65,0.00,CLR,,0.00,WeatherDisplay:10.37,2013-02-22 14:47:00,
2013-02-22 09:52:00,32.0,21.6,30.38,North,0,2.4,4.6,65,0.00,CLR,,0.00,WeatherDisplay:10.37,2013-02-22 14:52:00,
2013-02-22 09:57:00,32.2,21.7,30.38,NE,45,2.4,4.6,65,0.00,CLR,,0.00,WeatherDisplay:10.37,2013-02-22 14:57:00,
2013-02-22 10:02:00,32.5,21.7,30.37,NE,45,2.6,3.5,64,0.00,CLR,,0.00,WeatherDisplay:10.37,2013-02-22 15:02:00,
2013-02-22 10:07:00,32.7,21.5,30.37,ENE,68,2.9,5.8,63,0.00,CLR,,0.00,WeatherDisplay:10.37,2013-02-22 15:07:00,
2013-02-22 10:12:00,32.9,21.7,30.37,East,90,3.5,8.1,63,0.00,CLR,,0.00,WeatherDisplay:10.37,2013-02-22 15:12:00,
2013-02-22 10:17:00,32.9,21.3,30.37,NE,45,4.4,8.1,62,0.00,CLR,,0.00,WeatherDisplay:10.37,2013-02-22 15:17:00,
2013-02-22 10:22:00,32.9,21.3,30.38,South,180,4.9,4.9,62,0.00,CLR,,0.00,WeatherDisplay:10.37,2013-02-22 15:22:00,
2013-02-22 10:27:00,32.9,21.3,30.38,ESE,112,4.0,4.6,62,0.00,CLR,,0.00,WeatherDisplay:10.37,2013-02-22 15:27:00,
2013-02-22 10:32:00,33.3,21.3,30.38,ESE,112,3.1,6.9,61,0.00,CLR,,0.00,WeatherDisplay:10.37,2013-02-22 15:32:00,
2013-02-22 10:37:00,33.4,21.0,30.38,NE,45,3.5,3.5,60,0.00,CLR,,0.00,WeatherDisplay:10.37,2013-02-22 15:37:00,
2013-02-22 10:42:00,33.6,21.2,30.38,ENE,68,3.9,9.2,60,0.00,CLR,,0.00,WeatherDisplay:10.37,2013-02-22 15:42:00,
2013-02-22 10:47:00,34.2,21.7,30.38,NE,45,3.5,4.6,60,0.00,CLR,,0.00,WeatherDisplay:10.37,2013-02-22 15:47:00,
2013-02-22 10:52:00,34.2,21.7,30.38,East,90,2.4,3.5,60,0.00,CLR,,0.00,WeatherDisplay:10.37,2013-02-22 15:52:00,
2013-02-22 10:57:00,34.2,21.7,30.38,ENE,68,2.3,5.8,60,0.00,CLR,,0.00,WeatherDisplay:10.37,2013-02-22 15:57:00,
2013-02-22 11:02:00,34.2,21.3,30.36,SE,135,3.5,4.6,59,0.00,CLR,,0.00,WeatherDisplay:10.37,2013-02-22 16:02:00,
2013-02-22 11:07:00,34.3,21.5,30.36,WSW,248,3.5,4.6,59,0.00,CLR,,0.00,WeatherDisplay:10.37,2013-02-22 16:07:00,
2013-02-22 11:12:00,34.7,21.8,30.36,NE,45,2.8,2.8,59,0.00,CLR,,0.00,WeatherDisplay:10.37,2013-02-22 16:12:00,
2013-02-22 11:17:00,34.9,22.0,30.36,ENE,68,2.1,2.3,59,0.00,CLR,,0.00,WeatherDisplay:10.37,2013-02-22 16:17:00,
2013-02-22 11:22:00,35.2,22.3,30.36,NNE,22,2.0,2.3,59,0.00,CLR,,0.00,WeatherDisplay:10.37,2013-02-22 16:22:00,
2013-02-22 11:27:00,36.1,22.4,30.36,NNE,22,2.4,2.4,57,0.00,CLR,,0.00,WeatherDisplay:10.37,2013-02-22 16:27:00,
2013-02-22 11:32:00,36.0,22.2,30.36,NNE,22,3.0,3.5,57,0.00,CLR,,0.00,WeatherDisplay:10.37,2013-02-22 16:32:00,
2013-02-22 11:37:00,36.0,22.2,30.36,NE,45,3.1,4.6,57,0.00,CLR,,0.00,WeatherDisplay:10.37,2013-02-22 16:37:00,
2013-02-22 11:42:00,36.5,22.3,30.36,NE,45,2.8,2.8,56,0.00,CLR,,0.00,WeatherDisplay:10.37,2013-02-22 16:42:00,
2013-02-22 11:47:00,36.5,22.3,30.36,North,0,2.0,2.3,56,0.00,CLR,,0.00,WeatherDisplay:10.37,2013-02-22 16:47:00,
2013-02-22 11:52:00,36.7,22.4,30.36,ENE,68,1.1,0.0,56,0.00,CLR,,0.00,WeatherDisplay:10.37,2013-02-22 16:52:00,
2013-02-22 11:57:00,37.0,22.4,30.36,NNE,22,1.3,3.5,55,0.00,CLR,,0.00,WeatherDisplay:10.37,2013-02-22 16:57:00,
2013-02-22 12:02:00,37.2,22.1,30.37,NE,45,2.0,4.6,54,0.00,CLR,,0.00,WeatherDisplay:10.37,2013-02-22 17:02:00,
2013-02-22 12:07:00,37.2,22.1,30.37,NE,45,2.0,2.3,54,0.00,CLR,,0.00,WeatherDisplay:10.37,2013-02-22 17:07:00,
2013-02-22 12:12:00,37.6,22.0,30.37,SSE,158,2.0,2.3,53,0.00,CLR,,0.00,WeatherDisplay:10.37,2013-02-22 17:12:00,
2013-02-22 12:17:00,37.6,22.0,30.37,East,90,2.3,3.5,53,0.00,CLR,,0.00,WeatherDisplay:10.37,2013-02-22 17:17:00,
2013-02-22 12:22:00,37.6,22.0,30.36,NNW,338,2.3,2.3,53,0.00,CLR,,0.00,WeatherDisplay:10.37,2013-02-22 17:22:00,
2013-02-22 12:27:00,37.6,22.0,30.36,NE,45,2.3,3.6,53,0.00,CLR,,0.00,WeatherDisplay:10.37,2013-02-22 17:27:00,
2013-02-22 12:32:00,37.6,22.0,30.36,SE,135,2.2,2.2,53,0.00,CLR,,0.00,WeatherDisplay:10.37,2013-02-22 17:32:00,
2013-02-22 12:37:00,37.6,22.4,30.36,East,90,1.7,5.8,54,0.00,CLR,,0.00,WeatherDisplay:10.37,2013-02-22 17:37:00,
2013-02-22 12:42:00,37.8,23.0,30.36,ENE,68,1.3,1.5,55,0.00,CLR,,0.00,WeatherDisplay:10.37,2013-02-22 17:42:00,
2013-02-22 12:47:00,38.1,23.4,30.36,SW,225,1.1,2.3,55,0.00,CLR,,0.00,WeatherDisplay:10.37,2013-02-22 17:47:00,
2013-02-22 12:52:00,38.3,23.1,30.36,North,0,1.4,1.4,54,0.00,CLR,,0.00,WeatherDisplay:10.37,2013-02-22 17:52:00,
2013-02-22 12:57:00,38.3,22.6,30.36,NW,315,1.4,3.5,53,0.00,CLR,,0.00,WeatherDisplay:10.37,2013-02-22 17:57:00,
2013-02-22 13:02:00,38.3,22.2,30.36,ESE,112,1.7,1.7,52,0.00,CLR,,0.00,WeatherDisplay:10.37,2013-02-22 18:02:00,
2013-02-22 13:07:00,38.3,22.6,30.36,WSW,248,1.4,2.4,53,0.00,CLR,,0.00,WeatherDisplay:10.37,2013-02-22 18:07:00,
2013-02-22 13:12:00,38.7,23.4,30.36,East,90,1.1,1.1,54,0.00,CLR,,0.00,WeatherDisplay:10.37,2013-02-22 18:12:00,
2013-02-22 13:17:00,38.8,23.2,30.36,SE,135,1.4,2.3,53,0.00,CLR,,0.00,WeatherDisplay:10.37,2013-02-22 18:17:00,
2013-02-22 13:22:00,38.7,22.1,30.36,NE,45,2.6,5.5,51,0.00,CLR,,0.00,WeatherDisplay:10.37,2013-02-22 18:22:00,
2013-02-22 13:27:00,38.7,22.1,30.36,NE,45,2.6,2.6,51,0.00,CLR,,0.00,WeatherDisplay:10.37,2013-02-22 18:27:00,
2013-02-22 13:32:00,38.8,23.2,30.36,East,90,1.5,2.3,53,0.00,CLR,,0.00,WeatherDisplay:10.37,2013-02-22 18:32:00,
2013-02-22 13:37:00,39.0,22.9,30.36,ENE,68,1.0,2.3,52,0.00,CLR,,0.00,WeatherDisplay:10.37,2013-02-22 18:37:00,
2013-02-22 13:42:00,39.7,23.1,30.35,ENE,68,1.1,1.1,51,0.00,CLR,,0.00,WeatherDisplay:10.37,2013-02-22 18:42:00,
2013-02-22 13:47:00,39.6,22.9,30.35,ENE,68,1.3,3.5,51,0.00,CLR,,0.00,WeatherDisplay:10.37,2013-02-22 18:47:00,
2013-02-22 13:52:00,39.2,22.1,30.35,NNE,22,1.8,4.3,50,0.00,CLR,,0.00,WeatherDisplay:10.37,2013-02-22 18:52:00,
2013-02-22 13:57:00,39.2,22.6,30.35,NE,45,1.7,3.5,51,0.00,CLR,,0.00,WeatherDisplay:10.37,2013-02-22 18:57:00,
2013-02-22 14:02:00,39.7,23.5,30.34,NE,45,2.0,2.3,52,0.00,CLR,,0.00,WeatherDisplay:10.37,2013-02-22 19:02:00,
2013-02-22 14:07:00,39.7,22.6,30.34,NNE,22,2.1,2.3,50,0.00,CLR,,0.00,WeatherDisplay:10.37,2013-02-22 19:07:00,
2013-02-22 14:12:00,39.4,22.3,30.34,East,90,2.0,0.0,50,0.00,CLR,,0.00,WeatherDisplay:10.37,2013-02-22 19:12:00,
2013-02-22 14:17:00,39.6,22.4,30.34,NE,45,1.1,2.9,50,0.00,CLR,,0.00,WeatherDisplay:10.37,2013-02-22 19:17:00,
2013-02-22 14:22:00,39.4,22.3,30.34,ENE,68,1.3,1.3,50,0.00,CLR,,0.00,WeatherDisplay:10.37,2013-02-22 19:22:00,
2013-02-22 14:27:00,39.2,22.6,30.34,East,90,1.4,3.5,51,0.00,CLR,,0.00,WeatherDisplay:10.37,2013-02-22 19:27:00,
2013-02-22 14:32:00,38.8,22.7,30.34,East,90,1.5,2.3,52,0.00,CLR,,0.00,WeatherDisplay:10.37,2013-02-22 19:32:00,
2013-02-22 14:37:00,38.7,22.1,30.34,ENE,68,1.8,2.3,51,0.00,CLR,,0.00,WeatherDisplay:10.37,2013-02-22 19:37:00,
2013-02-22 14:42:00,38.5,21.4,30.34,NE,45,2.0,3.5,50,0.00,CLR,,0.00,WeatherDisplay:10.37,2013-02-22 19:42:00,
2013-02-22 14:47:00,38.3,21.7,30.34,NE,45,2.0,3.5,51,0.00,CLR,,0.00,WeatherDisplay:10.37,2013-02-22 19:47:00,
2013-02-22 14:52:00,37.9,21.4,30.34,WSW,248,1.5,1.5,51,0.00,CLR,,0.00,WeatherDisplay:10.37,2013-02-22 19:52:00,
2013-02-22 14:57:00,38.1,21.6,30.34,ENE,68,1.3,2.8,51,0.00,CLR,,0.00,WeatherDisplay:10.37,2013-02-22 19:57:00,
2013-02-22 15:02:00,37.4,21.4,30.34,NNW,338,1.4,1.4,52,0.00,CLR,,0.00,WeatherDisplay:10.37,2013-02-22 20:02:00,
2013-02-22 15:07:00,37.2,21.2,30.34,NE,45,1.5,2.3,52,0.00,CLR,,0.00,WeatherDisplay:10.37,2013-02-22 20:07:00,
2013-02-22 15:12:00,37.6,21.5,30.34,SW,225,0.7,0.0,52,0.00,CLR,,0.00,WeatherDisplay:10.37,2013-02-22 20:12:00,
2013-02-22 15:17:00,37.6,22.0,30.34,ESE,112,0.3,2.3,53,0.00,CLR,,0.00,WeatherDisplay:10.37,2013-02-22 20:17:00,
2013-02-22 15:22:00,37.6,22.0,30.35,East,90,0.5,1.1,53,0.00,CLR,,0.00,WeatherDisplay:10.37,2013-02-22 20:22:00,
2013-02-22 15:27:00,37.8,22.6,30.35,East,90,0.7,0.0,54,0.00,CLR,,0.00,WeatherDisplay:10.37,2013-02-22 20:27:00,
2013-02-22 15:32:00,37.9,22.3,30.35,East,90,0.5,0.0,53,0.00,CLR,,0.00,WeatherDisplay:10.37,2013-02-22 20:32:00,
2013-02-22 15:37:00,37.8,22.1,30.35,NNE,22,0.3,1.1,53,0.00,CLR,,0.00,WeatherDisplay:10.37,2013-02-22 20:37:00,
2013-02-22 15:42:00,37.6,22.4,30.34,SE,135,0.9,0.0,54,0.00,CLR,,0.00,WeatherDisplay:10.37,2013-02-22 20:42:00,
2013-02-22 15:47:00,37.6,22.0,30.34,WNW,292,1.0,1.1,53,0.00,CLR,,0.00,WeatherDisplay:10.37,2013-02-22 20:47:00,
2013-02-22 15:52:00,37.9,22.3,30.34,SE,135,0.8,2.3,53,0.00,CLR,,0.00,WeatherDisplay:10.37,2013-02-22 20:52:00,
2013-02-22 15:57:00,37.6,22.0,30.34,WNW,292,0.5,0.0,53,0.00,CLR,,0.00,WeatherDisplay:10.37,2013-02-22 20:57:00,
2013-02-22 16:02:00,37.6,22.0,30.35,NNE,22,0.3,1.1,53,0.00,CLR,,0.00,WeatherDisplay:10.37,2013-02-22 21:02:00,
2013-02-22 16:07:00,37.6,22.0,30.35,NE,45,0.9,3.5,53,0.00,CLR,,0.00,WeatherDisplay:10.37,2013-02-22 21:07:00,
2013-02-22 16:12:00,37.2,21.6,30.35,SE,135,1.7,1.7,53,0.00,CLR,,0.00,WeatherDisplay:10.37,2013-02-22 21:12:00,
2013-02-22 16:17:00,37.0,21.9,30.35,ENE,68,2.0,3.5,54,0.00,CLR,,0.00,WeatherDisplay:10.37,2013-02-22 21:17:00,
2013-02-22 16:22:00,37.2,22.1,30.33,SE,135,1.6,2.3,54,0.00,CLR,,0.00,WeatherDisplay:10.37,2013-02-22 21:22:00,
2013-02-22 16:27:00,37.0,21.5,30.33,SE,135,1.7,3.5,53,0.00,CLR,,0.00,WeatherDisplay:10.37,2013-02-22 21:27:00,
2013-02-22 16:32:00,37.0,21.9,30.33,ENE,68,1.1,0.0,54,0.00,CLR,,0.00,WeatherDisplay:10.37,2013-02-22 21:32:00,
2013-02-22 16:37:00,36.9,21.7,30.33,East,90,0.3,1.1,54,0.00,CLR,,0.00,WeatherDisplay:10.37,2013-02-22 21:37:00,
2013-02-22 16:42:00,36.5,21.0,30.32,East,90,0.6,0.0,53,0.00,CLR,,0.00,WeatherDisplay:10.37,2013-02-22 21:42:00,
2013-02-22 16:47:00,36.1,21.1,30.32,ESE,112,0.8,4.6,54,0.00,CLR,,0.00,WeatherDisplay:10.37,2013-02-22 21:47:00,
2013-02-22 16:52:00,35.8,21.2,30.32,SE,135,0.6,1.1,55,0.00,CLR,,0.00,WeatherDisplay:10.37,2013-02-22 21:52:00,
2013-02-22 16:57:00,35.8,21.6,30.32,SW,225,0.5,2.3,56,0.00,CLR,,0.00,WeatherDisplay:10.37,2013-02-22 21:57:00,
2013-02-22 17:02:00,35.4,21.3,30.26,SSW,202,0.6,0.0,56,0.00,CLR,,0.00,WeatherDisplay:10.37,2013-02-22 22:02:00,
2013-02-22 17:07:00,35.4,21.7,30.26,SSE,158,0.7,2.3,57,0.00,CLR,,0.00,WeatherDisplay:10.37,2013-02-22 22:07:00,
2013-02-22 17:12:00,34.7,21.8,30.26,South,180,0.5,0.0,59,0.00,CLR,,0.00,WeatherDisplay:10.37,2013-02-22 22:12:00,
2013-02-22 17:17:00,34.3,21.5,30.26,SE,135,0.6,1.1,59,0.00,CLR,,0.00,WeatherDisplay:10.37,2013-02-22 22:17:00,
2013-02-22 17:22:00,34.0,21.5,30.26,SE,135,0.5,0.0,60,0.00,CLR,,0.00,WeatherDisplay:10.37,2013-02-22 22:22:00,
2013-02-22 17:27:00,33.6,21.2,30.26,NNE,22,0.3,0.0,60,0.00,CLR,,0.00,WeatherDisplay:10.37,2013-02-22 22:27:00,
2013-02-22 17:32:00,33.3,21.3,30.26,South,180,0.0,0.0,61,0.00,CLR,,0.00,WeatherDisplay:10.37,2013-02-22 22:32:00,
2013-02-22 17:37:00,33.1,21.5,30.26,South,180,0.0,0.0,62,0.00,CLR,,0.00,WeatherDisplay:10.37,2013-02-22 22:37:00,
2013-02-22 17:42:00,32.7,21.1,30.27,South,180,0.0,0.0,62,0.00,CLR,,0.00,WeatherDisplay:10.37,2013-02-22 22:42:00,
2013-02-22 17:47:00,32.4,20.8,30.27,South,180,0.0,0.0,62,0.00,CLR,,0.00,WeatherDisplay:10.37,2013-02-22 22:47:00,
2013-02-22 17:52:00,31.8,20.6,30.27,South,180,0.0,0.0,63,0.00,CLR,,0.00,WeatherDisplay:10.37,2013-02-22 22:52:00,
2013-02-22 17:57:00,31.6,20.8,30.27,South,180,0.0,0.0,64,0.00,CLR,,0.00,WeatherDisplay:10.37,2013-02-22 22:57:00,
2013-02-22 18:02:00,31.5,21.4,30.26,South,180,0.0,0.0,66,0.00,CLR,,0.00,WeatherDisplay:10.37,2013-02-22 23:02:00,
2013-02-22 18:07:00,31.1,21.4,30.26,South,180,0.0,0.0,67,0.00,CLR,,0.00,WeatherDisplay:10.37,2013-02-22 23:07:00,
2013-02-22 18:12:00,31.1,21.4,30.26,SW,225,0.1,0.0,67,0.00,CLR,,0.00,WeatherDisplay:10.37,2013-02-22 23:12:00,
2013-02-22 18:17:00,30.7,21.1,30.26,South,180,0.1,0.0,67,0.00,CLR,,0.00,WeatherDisplay:10.37,2013-02-22 23:17:00,
2013-02-22 18:22:00,30.7,21.1,30.27,NNE,22,0.1,0.0,67,0.00,CLR,,0.00,WeatherDisplay:10.37,2013-02-22 23:22:00,
2013-02-22 18:27:00,30.4,20.7,30.27,South,180,0.0,0.0,67,0.00,CLR,,0.00,WeatherDisplay:10.37,2013-02-22 23:27:00,
2013-02-22 18:32:00,30.4,21.1,30.27,SSE,158,0.0,0.0,68,0.00,CLR,,0.00,WeatherDisplay:10.37,2013-02-22 23:32:00,
2013-02-22 18:37:00,30.2,21.2,30.27,East,90,0.1,1.1,69,0.00,CLR,,0.00,WeatherDisplay:10.37,2013-02-22 23:37:00,
2013-02-22 18:42:00,30.4,21.8,30.28,SW,225,0.1,1.1,70,0.00,CLR,,0.00,WeatherDisplay:10.37,2013-02-22 23:42:00,
2013-02-22 18:47:00,30.4,22.1,30.28,SE,135,0.1,0.0,71,0.00,CLR,,0.00,WeatherDisplay:10.37,2013-02-22 23:47:00,
2013-02-22 18:52:00,30.4,22.1,30.28,SW,225,0.3,1.1,71,0.00,CLR,,0.00,WeatherDisplay:10.37,2013-02-22 23:52:00,
2013-02-22 18:57:00,30.2,21.9,30.28,SW,225,0.6,2.3,71,0.00,CLR,,0.00,WeatherDisplay:10.37,2013-02-22 23:57:00,
2013-02-22 19:02:00,30.4,22.1,30.29,East,90,0.6,0.0,71,0.00,CLR,,0.00,WeatherDisplay:10.37,2013-02-23 00:02:00,
2013-02-22 19:07:00,30.4,22.4,30.29,East,90,0.9,2.3,72,0.00,CLR,,0.00,WeatherDisplay:10.37,2013-02-23 00:07:00,
2013-02-22 19:12:00,30.7,22.8,30.29,South,180,1.1,2.3,72,0.00,CLR,,0.00,WeatherDisplay:10.37,2013-02-23 00:12:00,
2013-02-22 19:17:00,31.1,23.1,30.29,South,180,1.6,3.5,72,0.00,CLR,,0.00,WeatherDisplay:10.37,2013-02-23 00:17:00,
2013-02-22 19:22:00,31.1,23.1,30.28,SW,225,1.7,3.5,72,0.00,CLR,,0.00,WeatherDisplay:10.37,2013-02-23 00:22:00,
2013-02-22 19:27:00,31.1,22.8,30.28,East,90,1.1,2.3,71,0.00,CLR,,0.00,WeatherDisplay:10.37,2013-02-23 00:27:00,
2013-02-22 19:32:00,31.1,23.1,30.28,East,90,1.1,2.3,72,0.00,CLR,,0.00,WeatherDisplay:10.37,2013-02-23 00:32:00,
2013-02-22 19:37:00,31.1,22.8,30.28,SSW,202,1.3,2.3,71,0.00,CLR,,0.00,WeatherDisplay:10.37,2013-02-23 00:37:00,
2013-02-22 19:42:00,31.1,23.1,30.29,North,0,1.5,2.3,72,0.00,CLR,,0.00,WeatherDisplay:10.37,2013-02-23 00:42:00,
2013-02-22 19:47:00,31.1,22.8,30.29,SW,225,1.1,2.3,71,0.00,CLR,,0.00,WeatherDisplay:10.37,2013-02-23 00:47:00,
2013-02-22 19:52:00,31.1,23.1,30.29,SSW,202,0.8,1.1,72,0.00,CLR,,0.00,WeatherDisplay:10.37,2013-02-23 00:52:00,
2013-02-22 19:57:00,31.1,23.1,30.29,SE,135,0.6,2.3,72,0.00,CLR,,0.00,WeatherDisplay:10.37,2013-02-23 00:57:00,
2013-02-22 20:02:00,31.1,23.1,30.28,SW,225,0.6,1.1,72,0.00,CLR,,0.00,WeatherDisplay:10.37,2013-02-23 01:02:00,
2013-02-22 20:07:00,31.1,23.1,30.28,SSW,202,0.7,1.1,72,0.00,CLR,,0.00,WeatherDisplay:10.37,2013-02-23 01:07:00,
2013-02-22 20:12:00,31.1,23.1,30.28,SE,135,0.8,0.0,72,0.00,CLR,,0.00,WeatherDisplay:10.37,2013-02-23 01:12:00,
2013-02-22 20:17:00,31.1,23.1,30.28,SSW,202,1.0,2.3,72,0.00,CLR,,0.00,WeatherDisplay:10.37,2013-02-23 01:17:00,
2013-02-22 20:22:00,31.1,23.1,30.27,SW,225,1.1,2.3,72,0.00,CLR,,0.00,WeatherDisplay:10.37,2013-02-23 01:22:00,
2013-02-22 20:27:00,31.1,23.1,30.27,SW,225,1.3,2.3,72,0.00,CLR,,0.00,WeatherDisplay:10.37,2013-02-23 01:27:00,
2013-02-22 20:32:00,31.1,23.1,30.27,ENE,68,1.5,0.0,72,0.00,CLR,,0.00,WeatherDisplay:10.37,2013-02-23 01:32:00,
2013-02-22 20:37:00,31.1,22.8,30.27,East,90,1.5,2.3,71,0.00,CLR,,0.00,WeatherDisplay:10.37,2013-02-23 01:37:00,
2013-02-22 20:42:00,31.1,23.1,30.27,SW,225,1.3,1.5,72,0.00,CLR,,0.00,WeatherDisplay:10.37,2013-02-23 01:42:00,
2013-02-22 20:47:00,31.1,23.1,30.27,SW,225,1.5,2.3,72,0.00,CLR,,0.00,WeatherDisplay:10.37,2013-02-23 01:47:00,
2013-02-22 20:52:00,31.1,23.1,30.27,SSE,158,1.1,0.0,72,0.00,CLR,,0.00,WeatherDisplay:10.37,2013-02-23 01:52:00,
2013-02-22 20:57:00,31.1,23.1,30.27,SW,225,1.0,1.1,72,0.00,CLR,,0.00,WeatherDisplay:10.37,2013-02-23 01:57:00,
2013-02-22 21:02:00,31.1,23.1,30.27,SE,135,0.9,2.1,72,0.00,BKN,,0.00,WeatherDisplay:10.37,2013-02-23 02:02:00,
2013-02-22 21:07:00,31.1,23.1,30.27,South,180,0.6,1.1,72,0.00,BKN,,0.00,WeatherDisplay:10.37,2013-02-23 02:07:00,
2013-02-22 21:12:00,30.7,22.8,30.27,SSW,202,0.5,1.1,72,0.00,BKN,,0.00,WeatherDisplay:10.37,2013-02-23 02:12:00,
2013-02-22 21:17:00,30.7,22.8,30.27,SW,225,0.5,2.3,72,0.00,BKN,,0.00,WeatherDisplay:10.37,2013-02-23 02:17:00,
2013-02-22 21:22:00,30.7,22.8,30.26,WSW,248,0.7,2.6,72,0.00,BKN,,0.00,WeatherDisplay:10.37,2013-02-23 02:22:00,
2013-02-22 21:28:00,30.7,22.8,30.26,South,180,0.6,1.1,72,0.00,BKN,,0.00,WeatherDisplay:10.37,2013-02-23 02:28:00,
2013-02-22 21:33:00,30.7,22.8,30.26,SE,135,1.0,2.3,72,0.00,BKN,,0.00,WeatherDisplay:10.37,2013-02-23 02:33:00,
2013-02-22 21:38:00,31.1,23.1,30.28,SW,225,1.6,2.3,72,0.00,BKN,,0.00,WeatherDisplay:10.37,2013-02-23 02:38:00,
2013-02-22 21:43:00,31.1,23.1,30.28,SSW,202,1.5,2.3,72,0.00,BKN,,0.00,WeatherDisplay:10.37,2013-02-23 02:43:00,
2013-02-22 21:48:00,31.1,23.1,30.28,South,180,1.1,1.1,72,0.00,BKN,,0.00,WeatherDisplay:10.37,2013-02-23 02:48:00,
2013-02-22 21:53:00,31.1,23.1,30.28,SSW,202,0.8,1.1,72,0.00,BKN,,0.00,WeatherDisplay:10.37,2013-02-23 02:53:00,
2013-02-22 21:58:00,31.1,23.1,30.28,SSW,202,0.8,2.3,72,0.00,BKN,,0.00,WeatherDisplay:10.37,2013-02-23 02:58:00,
2013-02-22 22:03:00,31.1,23.1,30.28,SW,225,0.8,1.1,72,0.00,BKN,,0.00,WeatherDisplay:10.37,2013-02-23 03:03:00,
2013-02-22 22:08:00,31.1,23.1,30.28,NE,45,0.3,0.0,72,0.00,BKN,,0.00,WeatherDisplay:10.37,2013-02-23 03:08:00,
2013-02-22 22:13:00,31.1,23.5,30.28,SSW,202,0.3,1.1,73,0.00,BKN,,0.00,WeatherDisplay:10.37,2013-02-23 03:13:00,
2013-02-22 22:18:00,31.1,23.5,30.28,SW,225,0.3,0.0,73,0.00,BKN,,0.00,WeatherDisplay:10.37,2013-02-23 03:18:00,
2013-02-22 22:23:00,30.7,23.1,30.28,South,180,0.3,1.1,73,0.00,BKN,,0.00,WeatherDisplay:10.37,2013-02-23 03:23:00,
2013-02-22 22:28:00,30.7,23.1,30.28,South,180,0.6,2.3,73,0.00,BKN,,0.00,WeatherDisplay:10.37,2013-02-23 03:28:00,
2013-02-22 22:33:00,30.7,23.1,30.28,South,180,0.6,2.3,73,0.00,BKN,,0.00,WeatherDisplay:10.37,2013-02-23 03:33:00,
2013-02-22 22:38:00,30.7,23.1,30.28,ESE,112,0.3,1.1,73,0.00,BKN,,0.00,WeatherDisplay:10.37,2013-02-23 03:38:00,
2013-02-22 22:43:00,30.7,23.1,30.28,SE,135,0.1,0.0,73,0.00,BKN,,0.00,WeatherDisplay:10.37,2013-02-23 03:43:00,
2013-02-22 22:48:00,30.7,23.1,30.28,WNW,292,0.1,0.0,73,0.00,BKN,,0.00,WeatherDisplay:10.37,2013-02-23 03:48:00,
2013-02-22 22:53:00,30.4,22.8,30.28,West,270,0.0,0.0,73,0.00,BKN,,0.00,WeatherDisplay:10.37,2013-02-23 03:53:00,
2013-02-22 22:58:00,29.8,22.2,30.27,SSE,158,0.2,1.1,73,0.00,BKN,,0.00,WeatherDisplay:10.37,2013-02-23 03:58:00,
2013-02-22 23:03:00,29.7,22.1,30.27,SW,225,0.2,0.0,73,0.00,OVC,,0.00,WeatherDisplay:10.37,2013-02-23 04:03:00,
2013-02-22 23:08:00,29.3,22.0,30.27,East,90,0.1,1.1,74,0.00,OVC,,0.00,WeatherDisplay:10.37,2013-02-23 04:08:00,
2013-02-22 23:13:00,28.9,21.7,30.27,SSE,158,0.1,1.1,74,0.00,OVC,,0.00,WeatherDisplay:10.37,2013-02-23 04:13:00,
2013-02-22 23:18:00,28.9,21.7,30.26,South,180,0.3,0.0,74,0.00,OVC,,0.00,WeatherDisplay:10.37,2013-02-23 04:18:00,
2013-02-22 23:23:00,28.6,21.3,30.26,South,180,0.3,1.4,74,0.00,OVC,,0.00,WeatherDisplay:10.37,2013-02-23 04:23:00,
2013-02-22 23:28:00,28.2,21.3,30.26,SSE,158,0.2,0.0,75,0.00,OVC,,0.00,WeatherDisplay:10.37,2013-02-23 04:28:00,
2013-02-22 23:33:00,28.2,21.6,30.26,SSE,158,0.3,1.1,76,0.00,OVC,,0.00,WeatherDisplay:10.37,2013-02-23 04:33:00,
2013-02-22 23:38:00,28.2,21.6,30.26,SSW,202,0.3,2.3,76,0.00,OVC,,0.00,WeatherDisplay:10.37,2013-02-23 04:38:00,
2013-02-22 23:43:00,28.2,21.6,30.26,SW,225,0.2,0.0,76,0.00,OVC,,0.00,WeatherDisplay:10.37,2013-02-23 04:43:00,
2013-02-22 23:48:00,28.2,21.6,30.26,SW,225,0.2,3.5,76,0.00,OVC,,0.00,WeatherDisplay:10.37,2013-02-23 04:48:00,
2013-02-22 23:53:00,28.2,21.9,30.26,NE,45,0.2,0.0,77,0.00,OVC,,0.00,WeatherDisplay:10.37,2013-02-23 04:53:00,
2013-02-22 23:58:00,28.4,22.1,30.26,SE,135,0.0,0.0,77,0.00,OVC,,0.00,WeatherDisplay:10.37,2013-02-23 04:58:00,